sat.trackr.live / text

‹ back to catalog

STARLINK-1781

NORAD 46685 · 2020-073R

PAYLOAD ACTIVE UNKNOWN

§ Identity

Operator
Country
US
Launch date
2020-10-18
Launch site
AFETR
Launch vehicle
Mass (kg)
RCS (m²)

Purposes: comms

External: N2YO · Heavens-Above · Gunter

§ Orbital elements

Epoch: 2026-09-05T18:35:05.052192Z

Period
87.76 min
Inclination
53.0210°
Eccentricity
0.0009309
Mean motion
16.40894780 rev/d
Perigee alt
157.3 km
Apogee alt
169.5 km
Semi-major
6,541.6 km
B*
6.4189e-4
RAAN
64.4299°
Arg perigee
294.3921°
Mean anomaly
65.6154°
Rev number
32,550

§ Raw data

STARLINK-17811 46685U 20073R   26248.77436403  .10054222  12452-4  64189-3 0  99922 46685  53.0210  64.4299 0009309 294.3921  65.6154 16.40894780325506

JSON: /api/v1/satellites/46685 · /tle

For live sub-satellite position, see the globe view (requires WebGL).

§ Visibility from observer

Set your observer location to see the next 7 days of passes ≥ 10°. The values pass through the URL so the page stays shareable.

No JS? Fill the form by hand. The geolocation button needs JavaScript.